Regional Weather Roundup
Issued by NWS

Home | Current Version | Previous Version | Graphics & Text | Print | Product List | Glossary On
Versions: 1 2 3 4 5 6 7 8 9 10 11 12 13 14 15 16 17 18 19 20 21 22 23 24 25 26 27 28 29 30 31 32 33 34 35 36 37 38 39 40 41 42 43 44 45 46 47 48 49 50
000
ASUS44 KMEG 280510
RWRTN
TENNESSEE HOURLY STATE WEATHER ROUNDUP
NATIONAL WEATHER SERVICE MEMPHIS TN
1200 AM CDT FRI JUL 28 2017

TNZ002-004-019-021-049-052-054-088>092-280600-
WEST TENNESSEE

CITY           SKY/WX    TMP DP  RH WIND       PRES   REMARKS
MEMPHIS INTL   CLOUDY    80  77  90 S12       29.89F
NWS MEMPHIS      N/A     79 N/A N/A MISG        N/A
JACKSON        CLOUDY    76  75  97 CALM      29.90F
SOMERVILLE       N/A     79  77  94 S7        29.89S
COVINGTON      CLOUDY    77  75  94 CALM      29.88F
UNION CITY     CLOUDY    77  75  94 SW3       29.88S FOG
BOLIVAR        CLOUDY    75  75 100 SE5       29.90S
PARIS          CLOUDY    77  75  94 SW6       29.89S
HUNTINGDON     CLOUDY    77  75  94 NE5       29.88F FOG
LEXINGTON      CLOUDY    75  73  94 CALM      29.91S
SAVANNAH       MOCLDY    77  77 100 CALM      29.93R FOG
$$

TNZ008-025-027-028-033-062-065-066-280600-
NORTH MIDDLE TENNESSEE

CITY           SKY/WX    TMP DP  RH WIND       PRES   REMARKS
NASHVILLE      CLOUDY    80  72  76 W5        29.91F
PORTLAND         N/A     77  72  83 S5        29.90F
CLARKSVILLE    CLOUDY    75  72  90 SW5       29.90S
SMYRNA         CLOUDY    79  74  84 NW3       29.92R
COOKEVILLE     PTCLDY    75  72  88 S3        29.92S
GALLATIN       CLOUDY    77  72  83 CALM      29.92F
CROSSVILLE     CLEAR     74  69  85 SW3       29.98F
$$

TNZ061-075-076-078-094-096-097-280600-
SOUTH MIDDLE TENNESSEE

CITY           SKY/WX    TMP DP  RH WIND       PRES   REMARKS
FAYETTEVILLE   CLOUDY    79  73  83 CALM      29.93S
TULLAHOMA      CLEAR     75  70  83 CALM      29.95S
WINCHESTER     CLEAR     75  72  88 CALM      29.94F
MCMINNVILLE    PTCLDY    79  75  89 CALM      29.93F
COLUMBIA       CLOUDY    79  73  83 VRB3      29.91R
SHELBYVILLE    PTCLDY    77  73  88 CALM      29.92S
$$

TNZ017-018-042-046-047-280600-
NORTHEAST TENNESSEE

CITY           SKY/WX    TMP DP  RH WIND       PRES   REMARKS
TRI CITIES     CLOUDY    71  70  96 N3        29.97F
ELIZABETHTON   CLOUDY    70  68  94 NE5       29.97F
$$

TNZ012-013-036-069-073-074-280600-
CENTRAL EAST TENNESSEE

CITY           SKY/WX    TMP DP  RH WIND       PRES   REMARKS
KNOXVILLE      CLOUDY    76  72  87 SW6       29.92F
OAK RIDGE      MOCLDY    77  73  87 CALM      29.94F
DOWNTOWN KNOXV CLOUDY    73  73 100 CALM      29.92S FOG
GATLINBURG     CLEAR     73  70  88 CALM      29.93S
MORRISTOWN     CLOUDY    75  72  88 CALM      29.94F
JACKSBORO      MOCLDY    73  73 100 CALM      29.98S
$$

TNZ083-085-099-280600-
SOUTHEAST TENNESSEE

CITY           SKY/WX    TMP DP  RH WIND       PRES   REMARKS
CHATTANOOGA      N/A     77  72  84 CALM      29.94S
DAYTON         CLOUDY    77  75  94 CALM      29.93R
$$

SKY/WX REPORTED AS FAIR MEANS FEW OR NO CLOUDS BELOW
12 THOUSAND FEET.





USA.gov is the U.S. government's official web portal to all federal, state and local government web resources and services.